| time (UTC) | temp F | wind direction | speed MPH | gust MPH | rain 1hr in | rain 24hr in | rain mn in | humidity % | barometer mb |
| 20260510142527 | 72 | 81 | 0.0 | 9.0 | 0.00 | 1.39 | 0.00 | 98 | 1015.0 |
| 20260510142022 | 72 | 108 | 1.0 | 9.0 | 0.00 | 1.39 | 0.00 | 99 | 1015.0 |
| 20260510141521 | 72 | 121 | 1.0 | 10.0 | 0.00 | 1.39 | 0.00 | 100 | 1015.0 |
| 20260510141020 | 71 | 83 | 1.0 | 8.0 | 0.00 | 1.39 | 0.00 | 100 | 1014.9 |
| 20260510140519 | 71 | 101 | 1.0 | 7.0 | 0.00 | 1.39 | 0.00 | 100 | 1014.9 |
| 20260510140019 | 71 | 96 | 1.0 | 6.0 | 0.00 | 1.39 | 0.00 | 100 | 1014.9 |
| 20260510135517 | 71 | 112 | 0.0 | 9.0 | 0.00 | 1.40 | 0.00 | 100 | 1014.8 |
| 20260510135016 | 70 | 113 | 0.0 | 10.0 | 0.00 | 1.40 | 0.00 | 100 | 1014.8 |
| 20260510134516 | 70 | 102 | 4.0 | 10.0 | 0.00 | 1.40 | 0.00 | 100 | 1014.8 |
| 20260510134019 | 70 | 94 | 5.0 | 9.0 | 0.00 | 1.40 | 0.00 | 100 | 1014.8 |
| 20260510133514 | 70 | 98 | 1.0 | 9.0 | 0.00 | 1.40 | 0.00 | 100 | 1014.8 |
| 20260510133014 | 69 | 88 | 1.0 | 9.0 | 0.00 | 1.40 | 0.00 | 100 | 1014.8 |
| 20260510132514 | 69 | 105 | 2.0 | 5.0 | 0.00 | 1.40 | 0.00 | 100 | 1014.5 |
| 20260510132013 | 69 | 90 | 0.0 | 5.0 | 0.00 | 1.40 | 0.00 | 100 | 1014.5 |
| 20260510131511 | 69 | 87 | 0.0 | 4.0 | 0.00 | 1.40 | 0.00 | 100 | 1014.5 |
| 20260510131013 | 69 | 88 | 0.0 | 4.0 | 0.00 | 1.40 | 0.00 | 100 | 1014.3 |
| 20260510130511 | 69 | 78 | 0.0 | 1.0 | 0.00 | 1.40 | 0.00 | 100 | 1014.3 |
| 20260510130011 | 69 | 78 | 0.0 | 2.0 | 0.00 | 1.40 | 0.00 | 100 | 1014.3 |
| 20260510125510 | 69 | 77 | 0.0 | 2.0 | 0.00 | 1.40 | 0.00 | 100 | 1013.9 |
| 20260510125010 | 68 | 78 | 0.0 | 2.0 | 0.00 | 1.40 | 0.00 | 100 | 1013.9 |
| 20260510124513 | 68 | 78 | 0.0 | 3.0 | 0.00 | 1.40 | 0.00 | 100 | 1013.9 |
| 20260510124010 | 68 | 79 | 0.0 | 3.0 | 0.00 | 1.40 | 0.00 | 100 | 1013.6 |
| 20260510123510 | 68 | 74 | 0.0 | 1.0 | 0.00 | 1.40 | 0.00 | 100 | 1013.6 |
| 20260510123007 | 68 | 74 | 0.0 | 2.0 | 0.00 | 1.40 | 0.00 | 100 | 1013.6 |
| 20260510122506 | 67 | 74 | 0.0 | 3.0 | 0.00 | 1.40 | 0.00 | 100 | 1013.4 |
| 20260510122006 | 67 | 76 | 0.0 | 3.0 | 0.00 | 1.40 | 0.00 | 100 | 1013.4 |
| 20260510121506 | 67 | 76 | 0.0 | 1.0 | 0.00 | 1.40 | 0.00 | 100 | 1013.4 |
| 20260510121006 | 67 | 76 | 0.0 | 1.0 | 0.00 | 1.40 | 0.00 | 100 | 1013.3 |
| 20260510120506 | 66 | 76 | 0.0 | 0.0 | 0.00 | 1.40 | 0.00 | 100 | 1013.3 |
| 20260510120012 | 66 | 76 | 0.0 | 1.0 | 0.00 | 1.40 | 0.00 | 100 | 1013.3 |
| 20260510115506 | 66 | 76 | 0.0 | 1.0 | 0.00 | 1.40 | 0.00 | 100 | 1013.1 |
| 20260510115005 | 66 | 77 | 0.0 | 2.0 | 0.00 | 1.40 | 0.00 | 100 | 1013.1 |
| 20260510114505 | 66 | 77 | 0.0 | 2.0 | 0.00 | 1.40 | 0.00 | 100 | 1013.1 |
| 20260510114005 | 66 | 42 | 0.0 | 0.0 | 0.00 | 1.40 | 0.00 | 100 | 1012.8 |
| 20260510113504 | 66 | 42 | 0.0 | 0.0 | 0.00 | 1.40 | 0.00 | 100 | 1012.8 |
| 20260510113004 | 66 | 42 | 0.0 | 0.0 | 0.00 | 1.40 | 0.00 | 100 | 1012.8 |
| 20260510112503 | 66 | 42 | 0.0 | 0.0 | 0.00 | 1.40 | 0.00 | 100 | 1012.7 |
| 20260510112002 | 65 | 42 | 0.0 | 0.0 | 0.00 | 1.40 | 0.00 | 100 | 1012.7 |
| 20260510111501 | 65 | 42 | 0.0 | 0.0 | 0.00 | 1.40 | 0.00 | 100 | 1012.7 |
| 20260510111003 | 65 | 42 | 0.0 | 0.0 | 0.00 | 1.40 | 0.00 | 100 | 1012.2 |
| 20260510110501 | 65 | 42 | 0.0 | 0.0 | 0.00 | 1.40 | 0.00 | 100 | 1012.2 |
| 20260510110003 | 65 | 42 | 0.0 | 0.0 | 0.00 | 1.40 | 0.00 | 100 | 1012.2 |
| 20260510105501 | 65 | 42 | 0.0 | 0.0 | 0.00 | 1.40 | 0.00 | 100 | 1012.1 |
| 20260510105001 | 65 | 42 | 0.0 | 0.0 | 0.00 | 1.40 | 0.00 | 100 | 1012.1 |
| 20260510104500 | 65 | 42 | 0.0 | 0.0 | 0.00 | 1.40 | 0.00 | 100 | 1012.1 |
| 20260510104100 | 65 | 42 | 0.0 | 0.0 | 0.00 | 1.40 | 0.00 | 100 | 1011.7 |
| 20260510103600 | 65 | 42 | 0.0 | 0.0 | 0.00 | 1.40 | 0.00 | 100 | 1011.7 |
| 20260510103101 | 66 | 42 | 0.0 | 0.0 | 0.00 | 1.40 | 0.00 | 100 | 1011.7 |
| 20260510102600 | 66 | 42 | 0.0 | 0.0 | 0.00 | 1.40 | 0.00 | 100 | 1011.7 |
| 20260510102100 | 65 | 42 | 0.0 | 0.0 | 0.00 | 1.40 | 0.00 | 100 | 1011.7 |
| 20260510101604 | 65 | 42 | 0.0 | 0.0 | 0.00 | 1.40 | 0.00 | 100 | 1011.7 |
| 20260510101059 | 65 | 42 | 0.0 | 0.0 | 0.00 | 1.40 | 0.00 | 100 | 1011.6 |
| 20260510100559 | 65 | 42 | 0.0 | 0.0 | 0.00 | 1.40 | 0.00 | 100 | 1011.6 |
| 20260510100059 | 65 | 42 | 0.0 | 0.0 | 0.00 | 1.40 | 0.00 | 100 | 1011.6 |
| 20260510095559 | 65 | 42 | 0.0 | 0.0 | 0.00 | 1.40 | 0.00 | 100 | 1011.7 |
| 20260510095059 | 65 | 42 | 0.0 | 0.0 | 0.00 | 1.40 | 0.00 | 100 | 1011.7 |
| 20260510094614 | 65 | 42 | 0.0 | 0.0 | 0.00 | 1.40 | 0.00 | 100 | 1011.7 |
| 20260510094059 | 65 | 42 | 0.0 | 0.0 | 0.00 | 1.40 | 0.00 | 100 | 1011.7 |
| 20260510093558 | 65 | 42 | 0.0 | 0.0 | 0.00 | 1.40 | 0.00 | 100 | 1011.7 |
| 20260510093058 | 65 | 42 | 0.0 | 0.0 | 0.00 | 1.40 | 0.00 | 100 | 1011.7 |
| 20260510092559 | 65 | 42 | 0.0 | 0.0 | 0.00 | 1.40 | 0.00 | 100 | 1011.5 |
| 20260510092056 | 65 | 42 | 0.0 | 0.0 | 0.00 | 1.40 | 0.00 | 100 | 1011.5 |
| 20260510091557 | 65 | 42 | 0.0 | 0.0 | 0.00 | 1.40 | 0.00 | 100 | 1011.5 |
| 20260510091056 | 65 | 42 | 0.0 | 0.0 | 0.00 | 1.40 | 0.00 | 100 | 1011.6 |
| 20260510090556 | 65 | 42 | 0.0 | 0.0 | 0.00 | 1.40 | 0.00 | 100 | 1011.6 |
| 20260510090056 | 65 | 42 | 0.0 | 0.0 | 0.00 | 1.40 | 0.00 | 100 | 1011.6 |
| 20260510085555 | 65 | 42 | 0.0 | 0.0 | 0.00 | 1.40 | 0.00 | 100 | 1011.6 |
| 20260510085056 | 65 | 42 | 0.0 | 0.0 | 0.00 | 1.40 | 0.00 | 100 | 1011.6 |
| 20260510084602 | 65 | 42 | 0.0 | 0.0 | 0.00 | 1.40 | 0.00 | 100 | 1011.6 |
| 20260510084056 | 65 | 42 | 0.0 | 0.0 | 0.00 | 1.40 | 0.00 | 100 | 1011.3 |
| 20260510083556 | 65 | 42 | 0.0 | 0.0 | 0.00 | 1.40 | 0.00 | 99 | 1011.3 |
| 20260510083114 | 65 | 42 | 0.0 | 0.0 | 0.00 | 1.40 | 0.00 | 99 | 1011.3 |
| 20260510082554 | 65 | 42 | 0.0 | 0.0 | 0.00 | 1.40 | 0.00 | 99 | 1011.3 |
| 20260510082053 | 66 | 42 | 0.0 | 0.0 | 0.00 | 1.40 | 0.00 | 99 | 1011.3 |
| 20260510081612 | 66 | 42 | 0.0 | 0.0 | 0.00 | 1.40 | 0.00 | 100 | 1011.3 |
| 20260510081053 | 66 | 42 | 0.0 | 0.0 | 0.00 | 1.40 | 0.00 | 99 | 1011.1 |
| 20260510080552 | 66 | 42 | 0.0 | 0.0 | 0.00 | 1.40 | 0.00 | 99 | 1011.1 |
| 20260510080052 | 66 | 42 | 0.0 | 0.0 | 0.00 | 1.40 | 0.00 | 99 | 1011.1 |
| 20260510075552 | 66 | 42 | 0.0 | 0.0 | 0.00 | 1.40 | 0.00 | 99 | 1011.0 |
| 20260510075054 | 66 | 42 | 0.0 | 0.0 | 0.00 | 1.40 | 0.00 | 99 | 1011.0 |
| 20260510074553 | 66 | 42 | 0.0 | 0.0 | 0.00 | 1.40 | 0.00 | 99 | 1011.0 |
| 20260510074053 | 66 | 42 | 0.0 | 0.0 | 0.00 | 1.40 | 0.00 | 99 | 1011.1 |
| 20260510073550 | 66 | 42 | 0.0 | 0.0 | 0.00 | 1.40 | 0.00 | 99 | 1011.1 |
| 20260510073051 | 66 | 42 | 0.0 | 0.0 | 0.00 | 1.40 | 0.00 | 99 | 1011.1 |
| 20260510072549 | 66 | 42 | 0.0 | 0.0 | 0.00 | 1.40 | 0.00 | 99 | 1011.0 |
| 20260510072049 | 67 | 42 | 0.0 | 0.0 | 0.00 | 1.40 | 0.00 | 99 | 1011.0 |
| 20260510071549 | 67 | 42 | 0.0 | 0.0 | 0.00 | 1.40 | 0.00 | 99 | 1011.0 |
| 20260510071048 | 67 | 42 | 0.0 | 0.0 | 0.00 | 1.40 | 0.00 | 99 | 1010.7 |
| 20260510070548 | 67 | 42 | 0.0 | 0.0 | 0.00 | 1.40 | 0.00 | 99 | 1010.7 |
| 20260510070048 | 67 | 42 | 0.0 | 0.0 | 0.00 | 1.40 | 0.00 | 99 | 1010.7 |
| 20260510065550 | 67 | 42 | 0.0 | 0.0 | 0.00 | 1.40 | 0.00 | 98 | 1010.7 |
| 20260510065046 | 67 | 42 | 0.0 | 0.0 | 0.00 | 1.40 | 0.00 | 98 | 1010.7 |
| 20260510064548 | 68 | 42 | 0.0 | 0.0 | 0.00 | 1.40 | 0.00 | 98 | 1010.7 |
| 20260510064045 | 68 | 42 | 0.0 | 0.0 | 0.00 | 1.40 | 0.00 | 98 | 1010.9 |
| 20260510063544 | 68 | 42 | 0.0 | 1.0 | 0.00 | 1.40 | 0.00 | 99 | 1010.9 |
| 20260510063046 | 68 | 42 | 0.0 | 4.0 | 0.00 | 1.40 | 0.00 | 99 | 1010.9 |
| 20260510062547 | 68 | 55 | 0.0 | 13.0 | 0.00 | 1.40 | 0.00 | 99 | 1010.8 |
| 20260510062045 | 68 | 171 | 3.0 | 13.0 | 0.00 | 1.40 | 0.00 | 100 | 1010.8 |
| 20260510061554 | 68 | 72 | 5.0 | 11.0 | 0.00 | 1.40 | 0.00 | 100 | 1010.8 |
| 20260510061044 | 68 | 49 | 3.0 | 7.0 | 0.00 | 1.40 | 0.00 | 100 | 1010.1 |
| 20260510060543 | 68 | 169 | 0.0 | 5.0 | 0.00 | 1.40 | 0.00 | 100 | 1010.1 |
| 20260510060046 | 68 | 166 | 0.0 | 3.0 | 0.00 | 1.40 | 0.00 | 100 | 1010.1 |
| 20260510055542 | 68 | 166 | 0.0 | 3.0 | 0.00 | 1.40 | 0.00 | 100 | 1010.3 |
| 20260510055042 | 68 | 166 | 0.0 | 3.0 | 0.00 | 1.40 | 0.00 | 100 | 1010.3 |
| 20260510054542 | 68 | 165 | 0.0 | 3.0 | 0.00 | 1.40 | 0.00 | 100 | 1010.3 |
| 20260510054042 | 68 | 165 | 0.0 | 3.0 | 0.00 | 1.40 | 0.00 | 100 | 1010.5 |
| 20260510053541 | 68 | 165 | 0.0 | 2.0 | 0.00 | 1.40 | 0.00 | 100 | 1010.5 |
| 20260510053046 | 68 | 165 | 0.0 | 3.0 | 0.00 | 1.40 | 0.00 | 100 | 1010.5 |
| 20260510052540 | 68 | 167 | 0.0 | 4.0 | 0.00 | 1.40 | 0.00 | 100 | 1010.3 |
| 20260510052040 | 68 | 166 | 0.0 | 4.0 | 0.00 | 1.40 | 0.00 | 100 | 1010.3 |
| 20260510051542 | 68 | 161 | 0.0 | 5.0 | 0.00 | 1.40 | 0.00 | 100 | 1010.3 |
| 20260510051040 | 68 | 160 | 0.0 | 8.0 | 0.00 | 1.40 | 0.00 | 100 | 1010.4 |
| 20260510050542 | 68 | 163 | 1.0 | 8.0 | 0.00 | 1.40 | 0.00 | 100 | 1010.4 |
| 20260510050039 | 68 | 147 | 0.0 | 8.0 | 0.00 | 1.40 | 0.00 | 100 | 1010.4 |
| 20260510045538 | 68 | 162 | 3.0 | 8.0 | 0.00 | 1.40 | 1.40 | 100 | 1010.6 |
| 20260510045038 | 68 | 170 | 0.0 | 8.0 | 0.00 | 1.40 | 1.40 | 100 | 1010.6 |
| 20260510044538 | 68 | 153 | 1.0 | 8.0 | 0.00 | 1.40 | 1.40 | 100 | 1010.6 |
| 20260510044037 | 68 | 155 | 1.0 | 7.0 | 0.00 | 1.40 | 1.40 | 100 | 1010.9 |
| 20260510043537 | 68 | 153 | 2.0 | 7.0 | 0.00 | 1.40 | 1.40 | 100 | 1010.9 |
| 20260510043037 | 68 | 168 | 0.0 | 5.0 | 0.00 | 1.40 | 1.40 | 100 | 1010.9 |
| 20260510042536 | 68 | 163 | 1.0 | 5.0 | 0.00 | 1.40 | 1.40 | 100 | 1011.2 |
| 20260510042040 | 68 | 175 | 0.0 | 5.0 | 0.00 | 1.40 | 1.40 | 100 | 1011.2 |
| 20260510041539 | 68 | 142 | 0.0 | 5.0 | 0.00 | 1.40 | 1.40 | 100 | 1011.2 |
| 20260510041036 | 68 | 128 | 0.0 | 2.0 | 0.00 | 1.40 | 1.40 | 100 | 1011.7 |
| 20260510040536 | 68 | 128 | 0.0 | 2.0 | 0.00 | 1.40 | 1.40 | 100 | 1011.7 |
| 20260510040036 | 68 | 128 | 0.0 | 0.0 | 0.00 | 1.40 | 1.40 | 100 | 1011.7 |
| 20260510035536 | 68 | 128 | 0.0 | 0.0 | 0.00 | 1.40 | 1.40 | 100 | 1011.8 |
| 20260510035036 | 68 | 128 | 0.0 | 1.0 | 0.00 | 1.40 | 1.40 | 100 | 1011.8 |
| 20260510034536 | 68 | 128 | 0.0 | 2.0 | 0.00 | 1.40 | 1.40 | 100 | 1011.8 |
| 20260510034036 | 68 | 128 | 0.0 | 2.0 | 0.00 | 1.40 | 1.40 | 100 | 1012.2 |
| 20260510033539 | 68 | 125 | 0.0 | 0.0 | 0.00 | 1.40 | 1.40 | 100 | 1012.2 |
| 20260510033037 | 68 | 125 | 0.0 | 0.0 | 0.00 | 1.40 | 1.40 | 100 | 1012.2 |
| 20260510032535 | 68 | 125 | 0.0 | 0.0 | 0.00 | 1.40 | 1.40 | 100 | 1012.7 |
| 20260510032037 | 68 | 125 | 0.0 | 0.0 | 0.00 | 1.40 | 1.40 | 100 | 1012.7 |
| 20260510031544 | 68 | 125 | 0.0 | 0.0 | 0.00 | 1.40 | 1.40 | 100 | 1012.7 |
| 20260510031035 | 68 | 125 | 0.0 | 0.0 | 0.00 | 1.40 | 1.40 | 100 | 1012.5 |
| 20260510030535 | 68 | 125 | 0.0 | 0.0 | 0.00 | 1.40 | 1.40 | 100 | 1012.5 |
| 20260510030037 | 68 | 125 | 0.0 | 0.0 | 0.00 | 1.40 | 1.40 | 100 | 1012.5 |
| 20260510025534 | 68 | 125 | 0.0 | 0.0 | 0.00 | 1.40 | 1.40 | 100 | 1012.4 |
| 20260510025034 | 68 | 125 | 0.0 | 0.0 | 0.00 | 1.40 | 1.40 | 100 | 1012.4 |
| 20260510024536 | 68 | 125 | 0.0 | 0.0 | 0.00 | 1.40 | 1.40 | 100 | 1012.4 |
| 20260510024033 | 68 | 125 | 0.0 | 0.0 | 0.00 | 1.40 | 1.40 | 100 | 1012.0 |
| 20260510023533 | 68 | 125 | 0.0 | 0.0 | 0.00 | 1.40 | 1.40 | 100 | 1012.0 |
| 20260510023040 | 68 | 125 | 0.0 | 0.0 | 0.00 | 1.40 | 1.40 | 100 | 1012.0 |
| 20260510022536 | 68 | 125 | 0.0 | 0.0 | 0.00 | 1.40 | 1.40 | 100 | 1011.8 |
| 20260510022033 | 68 | 125 | 0.0 | 0.0 | 0.00 | 1.40 | 1.40 | 100 | 1011.8 |
| 20260510021536 | 68 | 125 | 0.0 | 0.0 | 0.00 | 1.40 | 1.40 | 100 | 1011.8 |
| 20260510021033 | 68 | 125 | 0.0 | 0.0 | 0.00 | 1.40 | 1.40 | 100 | 1011.6 |
| 20260510020533 | 68 | 125 | 0.0 | 0.0 | 0.00 | 1.40 | 1.40 | 100 | 1011.6 |
| 20260510020033 | 68 | 125 | 0.0 | 0.0 | 0.00 | 1.40 | 1.40 | 100 | 1011.6 |
| 20260510015536 | 68 | 125 | 0.0 | 0.0 | 0.00 | 1.40 | 1.40 | 100 | 1011.5 |
| 20260510015034 | 68 | 125 | 0.0 | 1.0 | 0.00 | 1.40 | 1.40 | 100 | 1011.5 |
| 20260510014532 | 68 | 125 | 0.0 | 0.0 | 0.00 | 1.40 | 1.40 | 100 | 1011.5 |
| 20260510014032 | 68 | 125 | 0.0 | 0.0 | 0.00 | 1.40 | 1.40 | 100 | 1011.3 |
| 20260510013533 | 68 | 125 | 0.0 | 0.0 | 0.00 | 1.40 | 1.40 | 100 | 1011.3 |
| 20260510013031 | 68 | 125 | 0.0 | 1.0 | 0.00 | 1.40 | 1.40 | 100 | 1011.3 |
| 20260510012531 | 68 | 125 | 0.0 | 2.0 | 0.00 | 1.40 | 1.40 | 100 | 1010.9 |
| 20260510012031 | 68 | 125 | 0.0 | 5.0 | 0.00 | 1.40 | 1.40 | 100 | 1010.9 |
| 20260510011532 | 68 | 125 | 1.0 | 5.0 | 0.00 | 1.40 | 1.40 | 100 | 1010.9 |
| 20260510011032 | 68 | 129 | 0.0 | 5.0 | 0.00 | 1.40 | 1.40 | 100 | 1010.7 |
| 20260510010532 | 68 | 128 | 3.0 | 5.0 | 0.00 | 1.40 | 1.40 | 100 | 1010.7 |
| 20260510010031 | 68 | 130 | 1.0 | 7.0 | 0.00 | 1.40 | 1.40 | 100 | 1010.7 |
| 20260510005531 | 69 | 125 | 1.0 | 7.0 | 0.00 | 1.40 | 1.40 | 100 | 1010.6 |
| 20260510005030 | 69 | 126 | 3.0 | 7.0 | 0.00 | 1.40 | 1.40 | 100 | 1010.6 |
| 20260510004531 | 69 | 132 | 3.0 | 9.0 | 0.00 | 1.40 | 1.40 | 100 | 1010.6 |
| 20260510004030 | 69 | 127 | 4.0 | 9.0 | 0.00 | 1.40 | 1.40 | 100 | 1010.6 |
| 20260510003530 | 69 | 137 | 3.0 | 9.0 | 0.00 | 1.40 | 1.40 | 100 | 1010.6 |
| 20260510003031 | 69 | 139 | 4.0 | 10.0 | 0.00 | 1.40 | 1.40 | 100 | 1010.6 |
| 20260510002529 | 69 | 133 | 1.0 | 10.0 | 0.00 | 1.40 | 1.40 | 100 | 1010.6 |
| 20260510002029 | 69 | 128 | 2.0 | 8.0 | 0.00 | 1.40 | 1.40 | 100 | 1010.6 |
| 20260510001530 | 69 | 140 | 4.0 | 8.0 | 0.00 | 1.40 | 1.40 | 100 | 1010.6 |
| 20260510001030 | 69 | 143 | 3.0 | 7.0 | 0.00 | 1.40 | 1.40 | 100 | 1010.6 |
| 20260510000531 | 69 | 141 | 4.0 | 7.0 | 0.00 | 1.40 | 1.40 | 100 | 1010.6 |
| 20260510000029 | 69 | 137 | 0.0 | 7.0 | 0.00 | 1.40 | 1.40 | 100 | 1010.6 |
| 20260509235529 | 69 | 142 | 1.0 | 7.0 | 0.00 | 1.40 | 1.40 | 100 | 1010.6 |
| 20260509235029 | 69 | 126 | 2.0 | 7.0 | 0.00 | 1.40 | 1.40 | 100 | 1010.6 |
| 20260509234536 | 68 | 112 | 0.0 | 4.0 | 0.00 | 1.40 | 1.40 | 100 | 1010.6 |
| 20260509234029 | 69 | 112 | 0.0 | 4.0 | 0.00 | 1.40 | 1.40 | 100 | 1010.7 |
| 20260509233529 | 69 | 111 | 1.0 | 4.0 | 0.00 | 1.40 | 1.40 | 100 | 1010.7 |
| 20260509233028 | 69 | 111 | 0.0 | 4.0 | 0.00 | 1.40 | 1.40 | 100 | 1010.7 |
| 20260509232528 | 69 | 111 | 0.0 | 0.0 | 0.00 | 1.40 | 1.40 | 100 | 1010.7 |
| 20260509232028 | 69 | 111 | 0.0 | 0.0 | 0.00 | 1.40 | 1.40 | 100 | 1010.7 |
| 20260509231528 | 69 | 111 | 0.0 | 1.0 | 0.00 | 1.40 | 1.40 | 100 | 1010.7 |
| 20260509231028 | 69 | 111 | 0.0 | 1.0 | 0.00 | 1.40 | 1.40 | 100 | 1010.7 |
| 20260509230528 | 69 | 109 | 0.0 | 1.0 | 0.00 | 1.40 | 1.40 | 100 | 1010.7 |
| 20260509230028 | 69 | 109 | 0.0 | 1.0 | 0.00 | 1.40 | 1.40 | 100 | 1010.7 |
| 20260509225527 | 69 | 109 | 0.0 | 0.0 | 0.00 | 1.40 | 1.40 | 100 | 1010.5 |
| 20260509225028 | 69 | 109 | 0.0 | 1.0 | 0.00 | 1.40 | 1.40 | 100 | 1010.5 |
| 20260509224527 | 69 | 109 | 0.0 | 1.0 | 0.01 | 1.40 | 1.40 | 100 | 1010.5 |
| 20260509224027 | 69 | 109 | 0.0 | 0.0 | 0.01 | 1.40 | 1.40 | 100 | 1010.6 |
| 20260509223527 | 69 | 109 | 0.0 | 1.0 | 0.01 | 1.40 | 1.40 | 100 | 1010.6 |
| 20260509223026 | 68 | 109 | 0.0 | 1.0 | 0.01 | 1.40 | 1.40 | 100 | 1010.6 |
| 20260509222526 | 69 | 109 | 0.0 | 1.0 | 0.02 | 1.40 | 1.40 | 100 | 1010.6 |
| 20260509222026 | 69 | 109 | 0.0 | 0.0 | 0.02 | 1.40 | 1.40 | 100 | 1010.6 |
| 20260509221526 | 68 | 109 | 0.0 | 0.0 | 0.02 | 1.40 | 1.40 | 100 | 1010.6 |
| 20260509221027 | 68 | 109 | 0.0 | 1.0 | 0.02 | 1.40 | 1.40 | 100 | 1010.4 |
| 20260509220526 | 68 | 109 | 0.0 | 2.0 | 0.03 | 1.40 | 1.40 | 100 | 1010.4 |
| 20260509220029 | 68 | 109 | 0.0 | 1.0 | 0.03 | 1.40 | 1.40 | 100 | 1010.4 |
| 20260509215526 | 68 | 109 | 0.0 | 1.0 | 0.03 | 1.41 | 1.40 | 100 | 1010.3 |
| 20260509215026 | 68 | 109 | 0.0 | 1.0 | 0.03 | 1.41 | 1.40 | 100 | 1010.3 |
| 20260509214526 | 68 | 109 | 0.0 | 3.0 | 0.02 | 1.40 | 1.39 | 100 | 1010.3 |
| 20260509214028 | 68 | 109 | 0.0 | 4.0 | 0.02 | 1.40 | 1.39 | 100 | 1010.5 |
| 20260509213525 | 68 | 109 | 0.0 | 4.0 | 0.02 | 1.40 | 1.39 | 100 | 1010.5 |
| 20260509213025 | 68 | 115 | 0.0 | 3.0 | 0.02 | 1.40 | 1.39 | 100 | 1010.5 |
| 20260509212524 | 68 | 115 | 0.0 | 3.0 | 0.01 | 1.39 | 1.38 | 100 | 1010.6 |
| 20260509212030 | 68 | 115 | 1.0 | 3.0 | 0.01 | 1.39 | 1.38 | 100 | 1010.6 |
| 20260509211525 | 68 | 115 | 0.0 | 4.0 | 0.01 | 1.39 | 1.38 | 100 | 1010.6 |
| 20260509211028 | 68 | 115 | 1.0 | 4.0 | 0.01 | 1.39 | 1.38 | 100 | 1010.5 |
| 20260509210525 | 68 | 115 | 1.0 | 5.0 | 0.00 | 1.38 | 1.37 | 100 | 1010.5 |
| 20260509210028 | 68 | 117 | 1.0 | 5.0 | 0.00 | 1.38 | 1.37 | 100 | 1010.5 |
| 20260509205525 | 68 | 117 | 3.0 | 5.0 | 0.00 | 1.59 | 1.37 | 100 | 1010.1 |
| 20260509205024 | 68 | 119 | 2.0 | 5.0 | 0.00 | 1.59 | 1.37 | 100 | 1010.1 |
| 20260509204524 | 68 | 121 | 1.0 | 7.0 | 0.00 | 1.59 | 1.37 | 100 | 1010.1 |
| 20260509204024 | 68 | 123 | 2.0 | 10.0 | 0.00 | 1.59 | 1.37 | 100 | 1009.7 |
| 20260509203523 | 68 | 119 | 4.0 | 10.0 | 0.00 | 1.59 | 1.37 | 100 | 1009.7 |
| 20260509203025 | 68 | 111 | 4.0 | 10.0 | 0.00 | 1.59 | 1.37 | 100 | 1009.7 |
| 20260509202523 | 68 | 128 | 4.0 | 12.0 | 0.00 | 1.59 | 1.37 | 100 | 1010.1 |
| 20260509202023 | 68 | 102 | 7.0 | 12.0 | 0.00 | 1.59 | 1.37 | 100 | 1010.1 |
| 20260509201523 | 68 | 100 | 7.0 | 11.0 | 0.00 | 1.59 | 1.37 | 100 | 1010.1 |
| 20260509201022 | 68 | 132 | 6.0 | 11.0 | 0.00 | 1.59 | 1.37 | 100 | 1010.5 |
| 20260509200522 | 68 | 107 | 4.0 | 11.0 | 0.00 | 1.59 | 1.37 | 100 | 1010.5 |
| 20260509200022 | 68 | 103 | 6.0 | 10.0 | 0.00 | 1.59 | 1.37 | 100 | 1010.5 |
| 20260509195527 | 68 | 72 | 5.0 | 9.0 | 0.00 | 1.88 | 1.37 | 100 | 1010.7 |
| 20260509195022 | 68 | 108 | 5.0 | 15.0 | 0.02 | 1.88 | 1.37 | 100 | 1010.7 |
| 20260509194525 | 68 | 103 | 6.0 | 15.0 | 0.02 | 1.88 | 1.37 | 100 | 1010.7 |
| 20260509194022 | 68 | 122 | 7.0 | 11.0 | 0.02 | 1.88 | 1.37 | 100 | 1011.1 |
| 20260509193522 | 68 | 102 | 4.0 | 10.0 | 0.02 | 1.88 | 1.37 | 100 | 1011.1 |
| 20260509193022 | 68 | 121 | 3.0 | 9.0 | 0.03 | 1.88 | 1.37 | 100 | 1011.1 |
| 20260509192521 | 68 | 98 | 6.0 | 9.0 | 0.06 | 1.88 | 1.37 | 100 | 1011.7 |
| 20260509192025 | 68 | 96 | 4.0 | 9.0 | 0.08 | 1.88 | 1.37 | 100 | 1011.7 |
| 20260509191520 | 68 | 117 | 2.0 | 4.0 | 0.11 | 1.88 | 1.37 | 100 | 1011.7 |
| 20260509191020 | 67 | 117 | 0.0 | 5.0 | 0.12 | 1.88 | 1.37 | 100 | 1011.7 |
| 20260509190520 | 67 | 119 | 1.0 | 7.0 | 0.14 | 1.88 | 1.37 | 100 | 1011.7 |
| 20260509190021 | 67 | 120 | 3.0 | 9.0 | 0.14 | 1.88 | 1.37 | 100 | 1011.7 |
| 20260509185522 | 67 | 132 | 1.0 | 9.0 | 0.14 | 1.87 | 1.36 | 100 | 1011.4 |
| 20260509185021 | 67 | 119 | 6.0 | 9.0 | 0.14 | 1.86 | 1.35 | 100 | 1011.4 |
| 20260509184532 | 67 | 126 | 4.0 | 8.0 | 0.16 | 1.86 | 1.35 | 100 | 1011.4 |
| 20260509184020 | 67 | 111 | 1.0 | 7.0 | 0.17 | 1.86 | 1.35 | 100 | 1012.2 |
| 20260509183520 | 67 | 111 | 3.0 | 7.0 | 0.19 | 1.86 | 1.35 | 100 | 1012.2 |
| 20260509183020 | 67 | 130 | 1.0 | 8.0 | 0.17 | 1.84 | 1.33 | 100 | 1012.2 |
| 20260509182520 | 67 | 134 | 4.0 | 8.0 | 0.16 | 1.82 | 1.31 | 100 | 1012.1 |
| 20260509182021 | 67 | 129 | 3.0 | 5.0 | 0.13 | 1.79 | 1.28 | 100 | 1012.1 |
| 20260509181520 | 67 | 128 | 2.0 | 7.0 | 0.11 | 1.77 | 1.26 | 100 | 1012.1 |
| 20260509181019 | 67 | 135 | 1.0 | 9.0 | 0.09 | 1.75 | 1.24 | 100 | 1011.2 |
| 20260509180520 | 67 | 135 | 5.0 | 12.0 | 0.08 | 1.74 | 1.23 | 100 | 1011.2 |
| 20260509180022 | 67 | 119 | 8.0 | 12.0 | 0.08 | 1.74 | 1.23 | 100 | 1011.2 |
| 20260509175517 | 67 | 113 | 8.0 | 13.0 | 0.09 | 1.73 | 1.22 | 100 | 1011.9 |
| 20260509175017 | 67 | 103 | 7.0 | 11.0 | 0.12 | 1.71 | 1.20 | 100 | 1011.9 |
| 20260509174517 | 67 | 109 | 4.0 | 8.0 | 0.23 | 1.70 | 1.19 | 100 | 1011.9 |
| 20260509174017 | 67 | 118 | 4.0 | 11.0 | 0.38 | 1.69 | 1.18 | 100 | 1011.7 |
| 20260509173516 | 67 | 84 | 5.0 | 14.0 | 0.49 | 1.67 | 1.15 | 100 | 1011.7 |
| 20260509173017 | 67 | 111 | 7.0 | 14.0 | 0.62 | 1.66 | 1.14 | 100 | 1011.7 |
| 20260509172516 | 67 | 113 | 6.0 | 12.0 | 0.64 | 1.66 | 1.14 | 100 | 1011.7 |
| 20260509172016 | 67 | 92 | 6.0 | 12.0 | 0.66 | 1.66 | 1.14 | 100 | 1011.7 |
| 20260509171615 | 67 | 115 | 5.0 | 13.0 | 0.66 | 1.66 | 1.14 | 100 | 1011.7 |
| 20260509171015 | 67 | 80 | 8.0 | 19.0 | 0.66 | 1.66 | 1.14 | 100 | 1011.5 |
| 20260509170515 | 67 | 80 | 8.0 | 19.0 | 0.66 | 1.66 | 1.14 | 100 | 1011.5 |
| 20260509170015 | 67 | 91 | 8.0 | 16.0 | 0.65 | 1.65 | 1.13 | 100 | 1011.5 |
| 20260509165514 | 67 | 113 | 9.0 | 14.0 | 0.64 | 1.63 | 1.12 | 100 | 1012.1 |
| 20260509165014 | 68 | 110 | 8.0 | 12.0 | 0.61 | 1.58 | 1.07 | 100 | 1012.1 |
| 20260509164514 | 68 | 84 | 5.0 | 9.0 | 0.51 | 1.45 | 0.94 | 100 | 1012.1 |
| 20260509164014 | 68 | 21 | 3.0 | 6.0 | 0.36 | 1.29 | 0.78 | 100 | 1012.5 |
| 20260509163512 | 68 | 104 | 1.0 | 10.0 | 0.23 | 1.13 | 0.63 | 100 | 1012.5 |
| 20260509163012 | 68 | 103 | 1.0 | 11.0 | 0.13 | 1.03 | 0.52 | 100 | 1012.5 |
| 20260509162512 | 68 | 111 | 6.0 | 11.0 | 0.12 | 1.01 | 0.50 | 99 | 1012.0 |
| 20260509162012 | 67 | 80 | 4.0 | 12.0 | 0.11 | 1.00 | 0.49 | 99 | 1012.0 |
| 20260509161512 | 67 | 89 | 6.0 | 12.0 | 0.11 | 1.00 | 0.49 | 99 | 1012.0 |
| 20260509161011 | 67 | 101 | 8.0 | 15.0 | 0.12 | 1.00 | 0.49 | 99 | 1011.7 |
| 20260509160511 | 67 | 111 | 5.0 | 10.0 | 0.16 | 1.00 | 0.49 | 99 | 1011.7 |
| 20260509160012 | 67 | 95 | 5.0 | 9.0 | 0.16 | 1.00 | 0.49 | 99 | 1011.7 |
| 20260509155511 | 67 | 97 | 3.0 | 9.0 | 0.15 | 0.99 | 0.48 | 100 | 1011.8 |
| 20260509155011 | 67 | 128 | 4.0 | 10.0 | 0.15 | 0.96 | 0.45 | 100 | 1011.8 |
| 20260509154511 | 67 | 106 | 6.0 | 10.0 | 0.20 | 0.94 | 0.43 | 99 | 1011.8 |
| 20260509154011 | 67 | 92 | 2.0 | 11.0 | 0.20 | 0.92 | 0.41 | 99 | 1011.8 |
| 20260509153510 | 67 | 115 | 4.0 | 11.0 | 0.23 | 0.91 | 0.40 | 99 | 1011.8 |
| 20260509153010 | 67 | 107 | 4.0 | 13.0 | 0.24 | 0.90 | 0.39 | 99 | 1011.8 |
| 20260509152510 | 67 | 101 | 2.0 | 9.0 | 0.23 | 0.89 | 0.38 | 99 | 1011.7 |
| 20260509152014 | 67 | 107 | 3.0 | 9.0 | 0.25 | 0.89 | 0.38 | 99 | 1011.7 |
| 20260509151509 | 67 | 93 | 2.0 | 9.0 | 0.28 | 0.89 | 0.38 | 99 | 1011.7 |
| 20260509151010 | 66 | 101 | 4.0 | 9.0 | 0.28 | 0.87 | 0.36 | 99 | 1011.8 |
| 20260509150510 | 66 | 105 | 2.0 | 8.0 | 0.28 | 0.84 | 0.33 | 99 | 1011.8 |
| 20260509150008 | 66 | 96 | 4.0 | 8.0 | 0.31 | 0.84 | 0.33 | 99 | 1011.8 |
| 20260509145508 | 66 | 82 | 2.0 | 7.0 | 0.32 | 0.84 | 0.33 | 99 | 1012.0 |
| 20260509145008 | 66 | 75 | 0.0 | 4.0 | 0.28 | 0.80 | 0.28 | 98 | 1012.0 |
| 20260509144507 | 66 | 75 | 0.0 | 5.0 | 0.22 | 0.73 | 0.22 | 98 | 1012.0 |
| 20260509144006 | 66 | 51 | 1.0 | 5.0 | 0.20 | 0.71 | 0.20 | 98 | 1011.7 |
| 20260509143507 | 66 | 45 | 0.0 | 7.0 | 0.16 | 0.67 | 0.16 | 98 | 1011.7 |
| 20260509143006 | 66 | 68 | 1.0 | 10.0 | 0.15 | 0.66 | 0.15 | 98 | 1011.7 |